Content
SEND FEEDBACK

Daily
Averages
Monthly
Summary
United States of America

WALLER, TEXAS


Home > North America > United States > Texas
Elevation: 251 feet     Latitude: 30 02N     Longitude: 095 57W

WEATHER
 
SELECT A DAY
Number of Records: 118,048;   Date Range: 2/19/09 - 8/20/14
 
SHARE

PRINT THIS DATA

[ ← Previous Day ]
WEATHER ALMANAC - JANUARY 31, 2013
[ Next Day → ]
[ °C ]   °F
Weather ElementAverageHighLow
Temperature50.2 °F66.2 °F (2:15 pm)35.6 °F (3:55 am)
Dewpoint29.7 °F37.4 °F (11:35 pm)21.2 °F (2:55 pm)
Humidity51.4 %87 % (3:55 am)18 % (2:55 pm)
Barometer30.27 in30.34 in (9:55 am)30.22 in (6:15 pm)
Wind Speed5.8 mph15 mph (2:15 pm)
Wind Gust19.6 mph (1:15 pm)
Weather ElementAverage
Visibility9.7 mi
Wind DirectionESE (114.5 °)

Weather ElementTotal
Precipitation---
Heating Degree Days14.1 (Base 65)
Growing Degree Days0.9 (Base 50)
Averaged from 69 records on January 31, 2013
WEATHER CONDITIONS BREAKOUT
WIND DIRECTION BREAKOUT
WEATHER BY HOUR - JANUARY 31, 2013
[ °C ]   °F
Local TimeTemperatureDewpointHumidityBarometerVisibilityWind DirectionWind SpeedGust SpeedPrecipitationEventsConditions
12:55 AM41.0 °F30.2 °F65 %30.24 in10.0 miCalmScattered Clouds
1:15 AM37.4 °F32.0 °F81 %30.24 in10.0 miCalmOvercast
1:35 AM37.4 °F32.0 °F81 %30.25 in10.0 miCalmOvercast
1:55 AM39.2 °F28.4 °F65 %30.25 in10.0 miCalmOvercast
2:15 AM39.2 °F28.4 °F65 %30.24 in10.0 miCalmOvercast
2:35 AM37.4 °F30.2 °F75 %30.24 in10.0 miCalmOvercast
2:55 AM37.4 °F30.2 °F75 %30.24 in10.0 miCalmMostly Cloudy
3:15 AM37.4 °F32.0 °F81 %30.24 in10.0 miCalmOvercast
3:35 AM37.4 °F30.2 °F75 %30.24 in10.0 miCalmOvercast
3:55 AM35.6 °F32.0 °F87 %30.23 in10.0 miCalmOvercast
4:15 AM35.6 °F32.0 °F87 %30.23 in10.0 miCalmOvercast
4:35 AM37.4 °F32.0 °F81 %30.23 in10.0 miCalmOvercast
4:55 AM37.4 °F32.0 °F81 %30.23 in10.0 miCalmOvercast
5:15 AM37.4 °F30.2 °F75 %30.24 in10.0 miCalmOvercast
5:35 AM37.4 °F32.0 °F81 %30.24 in10.0 miCalmOvercast
5:55 AM37.4 °F28.4 °F70 %30.24 in10.0 miCalmOvercast
6:15 AM37.4 °F28.4 °F70 %30.26 in10.0 miCalmOvercast
6:35 AM37.4 °F28.4 °F70 %30.25 in10.0 miCalmMostly Cloudy
6:55 AM37.4 °F28.4 °F70 %30.27 in10.0 miCalmScattered Clouds
7:15 AM37.4 °F28.4 °F70 %30.28 in9.0 miCalmClear
7:35 AM39.2 °F30.2 °F70 %30.29 in9.0 miCalmClear
7:55 AM41.0 °F32.0 °F70 %30.29 in9.0 miCalmClear
8:15 AM42.8 °F35.6 °F76 %30.31 in9.0 miCalmClear
8:35 AM46.4 °F32.0 °F57 %30.31 in9.0 miSouth (190°)5.8 mphClear
8:55 AM48.2 °F32.0 °F54 %30.32 in9.0 miSSW (200°)9.2 mphClear
9:15 AM50.0 °F32.0 °F50 %30.33 in9.0 miSSW (210°)8.1 mphClear
9:35 AM50.0 °F33.8 °F54 %30.33 in8.0 miSSW (210°)9.2 mphClear
9:55 AM53.6 °F32.0 °F44 %30.34 in9.0 miSSW (200°)9.2 mphClear
10:15 AM55.4 °F32.0 °F41 %30.34 in10.0 miSouth (190°)12.7 mphClear
10:35 AM57.2 °F32.0 °F38 %30.33 in9.0 miSSW (200°)11.5 mphClear
10:55 AM57.2 °F28.4 °F33 %30.33 in9.0 miSSW (210°)12.7 mph18.4 mphClear
11:15 AM59.0 °F28.4 °F31 %30.33 in10.0 miSSW (210°)11.5 mphClear
11:35 AM60.8 °F28.4 °F29 %30.32 in10.0 miSSW (200°)11.5 mph17.3 mphClear
11:55 AM60.8 °F28.4 °F29 %30.32 in10.0 miSW (220°)10.4 mphClear
12:15 PM62.6 °F26.6 °F26 %30.31 in9.0 miSSW (200°)9.2 mphClear
12:35 PM64.4 °F24.8 °F22 %30.30 in9.0 miSSW (200°)12.7 mphClear
12:55 PM64.4 °F24.8 °F22 %30.29 in10.0 miSouth (190°)9.2 mph17.3 mphClear
1:15 PM64.4 °F23.0 °F21 %30.27 in9.0 miSSW (200°)13.8 mph19.6 mphClear
1:35 PM64.4 °F23.0 °F21 %30.26 in9.0 miSSW (200°)12.7 mph17.3 mphClear
1:55 PM64.4 °F23.0 °F21 %30.25 in9.0 miSW (220°)10.4 mphClear
2:15 PM66.2 °F23.0 °F19 %30.25 in10.0 miSSW (210°)15.0 mph19.6 mphClear
2:35 PM66.2 °F23.0 °F19 %30.24 in10.0 miSSW (200°)9.2 mphClear
2:55 PM66.2 °F21.2 °F18 %30.24 in10.0 miSouth (190°)13.8 mphClear
3:15 PM66.2 °F23.0 °F19 %30.23 in10.0 miSouth (190°)13.8 mph17.3 mphClear
3:55 PM66.2 °F23.0 °F19 %30.23 in10.0 miSW (220°)5.8 mphClear
4:15 PM66.2 °F23.0 °F19 %30.23 in10.0 miSouth (180°)11.5 mph17.3 mphClear
4:35 PM66.2 °F21.2 °F18 %30.23 in9.0 miSSW (200°)11.5 mphClear
4:55 PM64.4 °F23.0 °F21 %30.23 in9.0 miSSW (200°)9.2 mphClear
5:15 PM64.4 °F23.0 °F21 %30.23 in9.0 miSouth (190°)9.2 mphClear
5:35 PM62.6 °F24.8 °F24 %30.23 in10.0 miSouth (170°)9.2 mphClear
5:55 PM57.2 °F26.6 °F31 %30.23 in10.0 miSouth (170°)8.1 mphClear
6:15 PM55.4 °F28.4 °F36 %30.22 in10.0 miSouth (170°)10.4 mphClear
6:35 PM55.4 °F32.0 °F41 %30.23 in10.0 miSouth (170°)10.4 mphClear
6:55 PM53.6 °F32.0 °F44 %30.24 in10.0 miSouth (170°)8.1 mphScattered Clouds
7:15 PM51.8 °F32.0 °F47 %30.26 in10.0 miSouth (170°)8.1 mphPartly Cloudy
7:35 PM53.6 °F32.0 °F44 %30.28 in10.0 miSouth (180°)8.1 mphClear
7:55 PM51.8 °F32.0 °F47 %30.30 in10.0 miSouth (180°)9.2 mphPartly Cloudy
8:15 PM50.0 °F32.0 °F50 %30.30 in10.0 miSouth (180°)8.1 mphPartly Cloudy
8:35 PM48.2 °F32.0 °F54 %30.31 in10.0 miSouth (170°)5.8 mphPartly Cloudy
8:55 PM48.2 °F33.8 °F58 %30.31 in10.0 miSouth (170°)6.9 mphPartly Cloudy
9:15 PM48.2 °F33.8 °F58 %30.31 in10.0 miSSE (160°)5.8 mphPartly Cloudy
9:35 PM48.2 °F35.6 °F62 %30.32 in10.0 miCalmClear
9:55 PM48.2 °F35.6 °F62 %30.32 in10.0 miCalmPartly Cloudy
10:15 PM46.4 °F33.8 °F62 %30.32 in10.0 miSSE (160°)5.8 mphPartly Cloudy
10:35 PM46.4 °F35.6 °F66 %30.32 in10.0 miSE (140°)4.6 mphClear
10:55 PM46.4 °F35.6 °F66 %30.32 in10.0 miCalmClear
11:15 PM46.4 °F35.6 °F66 %30.32 in10.0 miCalmClear
11:35 PM46.4 °F37.4 °F71 %30.32 in10.0 miSSE (160°)6.9 mphClear
11:55 PM46.4 °F37.4 °F71 %30.31 in10.0 miSSE (150°)5.8 mphClear
Hourly data recorded from KTME, located miles away from Waller, Texas







STORIES FROM OUR PARTNERS